Manteo, NC

7:26 AM EDT on July 25, 2017 (GMT -0400)
Dare County Regional

Weather History for KMQI - January, 2013

Change the Weather History Date:

Thursday, January 24, 2013

  Actual Average Record
Temperature  
Mean Temperature 36 °F -  
Max Temperature 43 °F 46 °F 72 °F (1967)
Min Temperature 28 °F 34 °F 16 °F (2014)
Degree Days  
Heating Degree Days 30    
Moisture  
Dew Point 20 °F    
Average Humidity 57    
Maximum Humidity 76    
Minimum Humidity 41    
Precipitation  
Precipitation 0.00 in - - ()
Sea Level Pressure  
Sea Level Pressure 30.23 in    
Wind  
Wind Speed 14 mph (NW)    
Max Wind Speed 31 mph    
Max Gust Speed 43 mph    
Visibility 10 miles    
Events      
Averages and records for this station are not official NWS values.
T = Trace of Precipitation, MM = Missing Value Source: NWS Daily Summary

Daily Weather History Graph

Daily Weather History Graph

Search for Another Location

Airport or City:

Trip Planner

Search our weather history database for the weather conditions in past years. The results will help you decide how hot, cold, wet, or windy it might be!

Date:

Astronomy

Jan. 24, 2013 Rise Set
Actual Time 7:08 AM EST 5:21 PM EST
Civil Twilight 6:41 AM EST 5:49 PM EST
Nautical Twilight 6:10 AM EST 6:20 PM EST
Astronomical Twilight 5:39 AM EST 6:50 PM EST
Moon 3:22 PM EST (1/24) 5:03 AM EST (1/24)
Length of Visible Light 11h 08m
Length of Day
10h 13m
Waxing Gibbous, 94% of the Moon is Illuminated
Jan 24
Waxing Gibbous
Jan 26
Full
Feb 3
Last Quarter
Feb 10
New
Feb 17
First Quarter

Hourly Weather History & Observations

Time (EST) Temp. Windchill Dew Point Humidity Pressure Visibility Wind Dir Wind Speed Gust Speed Precip Events Conditions
12:15 AM 37.4 °F 30.3 °F 22.3 °F 54% 30.12 in 10.0 mi SSW 10.4 mph - N/A   Clear
12:35 AM 37.9 °F 29.6 °F 23.2 °F 55% 30.11 in 10.0 mi SSW 13.8 mph - N/A   Clear
12:55 AM 38.7 °F 30.1 °F 25.5 °F 59% 30.10 in 10.0 mi SSW 15.0 mph - N/A   Scattered Clouds
1:15 AM 39.4 °F 31.8 °F 26.4 °F 60% 30.09 in 10.0 mi SSW 12.7 mph - N/A   Mostly Cloudy
1:35 AM 39.6 °F 31.7 °F 26.2 °F 59% 30.07 in 10.0 mi SSW 13.8 mph - N/A   Overcast
1:55 AM 39.7 °F 32.3 °F 27.7 °F 62% 30.05 in 10.0 mi SSW 12.7 mph - N/A   Overcast
2:15 AM 40.3 °F 33.4 °F 29.7 °F 66% 30.04 in 10.0 mi SSW 11.5 mph - N/A   Mostly Cloudy
2:35 AM 41.0 °F 33.9 °F 30.7 °F 67% 30.02 in 10.0 mi SSW 12.7 mph - N/A   Scattered Clouds
2:55 AM 41.0 °F 34.3 °F 32.0 °F 70% 30.00 in 10.0 mi SSW 11.5 mph - N/A   Clear
3:15 AM 41.2 °F 34.1 °F 32.9 °F 72% 29.98 in 10.0 mi SSW 12.7 mph - N/A   Clear
3:35 AM 41.4 °F 33.6 °F 34.0 °F 75% 29.97 in 10.0 mi SSW 15.0 mph - N/A   Clear
3:55 AM 41.4 °F 33.6 °F 33.8 °F 74% 29.95 in 10.0 mi SW 15.0 mph - N/A   Clear
4:15 AM 41.0 °F 34.7 °F 34.0 °F 76% 29.95 in 10.0 mi WSW 10.4 mph - N/A   Clear
4:35 AM 42.6 °F 34.6 °F 34.0 °F 71% 29.95 in 10.0 mi WSW 17.3 mph 26.5 mph N/A   Clear
4:55 AM 43.3 °F 36.5 °F 33.1 °F 67% 29.95 in 10.0 mi West 13.8 mph 24.2 mph N/A   Clear
5:15 AM 42.4 °F 35.0 °F 32.2 °F 67% 29.94 in 10.0 mi West 15.0 mph 23.0 mph N/A   Clear
5:35 AM 41.9 °F 34.0 °F 32.0 °F 68% 29.93 in 10.0 mi WSW 16.1 mph 20.7 mph N/A   Clear
5:55 AM 41.4 °F 34.0 °F 31.8 °F 69% 29.94 in 10.0 mi West 13.8 mph 21.9 mph N/A   Scattered Clouds
6:15 AM 41.0 °F 34.3 °F 31.8 °F 70% 29.95 in 10.0 mi West 11.5 mph - N/A   Mostly Cloudy
6:35 AM 40.5 °F 33.2 °F 31.8 °F 71% 29.98 in 10.0 mi WNW 12.7 mph 19.6 mph N/A   Mostly Cloudy
6:55 AM 40.1 °F 32.7 °F 31.3 °F 71% 30.00 in 10.0 mi NW 12.7 mph 21.9 mph N/A   Scattered Clouds
7:15 AM 37.8 °F 29.8 °F 27.7 °F 67% 30.02 in 10.0 mi NW 12.7 mph 20.7 mph N/A   Scattered Clouds
7:35 AM 37.0 °F 31.0 °F 26.2 °F 65% 30.04 in 10.0 mi NW 8.1 mph 17.3 mph N/A   Scattered Clouds
7:55 AM 36.9 °F 30.1 °F 24.8 °F 62% 30.04 in 10.0 mi NNW 9.2 mph 18.4 mph N/A   Scattered Clouds
8:15 AM 37.4 °F 30.8 °F 24.8 °F 60% 30.05 in 10.0 mi North 9.2 mph 16.1 mph N/A   Mostly Cloudy
8:35 AM 37.4 °F 29.8 °F 24.8 °F 60% 30.07 in 10.0 mi NNW 11.5 mph 19.6 mph N/A   Overcast
8:55 AM 37.0 °F 27.0 °F 27.7 °F 69% 30.10 in 10.0 mi North 18.4 mph 29.9 mph N/A   Overcast
9:15 AM 36.3 °F 26.4 °F 27.7 °F 71% 30.11 in 10.0 mi North 17.3 mph 28.8 mph N/A   Overcast
9:35 AM 36.9 °F 26.2 °F 27.3 °F 68% 30.12 in 10.0 mi North 20.7 mph 32.2 mph N/A   Mostly Cloudy
9:55 AM 36.9 °F 25.1 °F 25.2 °F 63% 30.14 in 10.0 mi North 25.3 mph 41.4 mph N/A   Mostly Cloudy
10:15 AM 36.0 °F 24.7 °F 25.7 °F 66% 30.16 in 10.0 mi North 21.9 mph 32.2 mph N/A   Overcast
10:35 AM 35.2 °F 25.4 °F 23.9 °F 63% 30.19 in 10.0 mi North 16.1 mph 35.7 mph N/A   Overcast
10:55 AM 35.8 °F 24.8 °F 23.7 °F 62% 30.19 in 10.0 mi North 20.7 mph 34.5 mph N/A   Overcast
11:15 AM 34.2 °F 22.1 °F 22.5 °F 62% 30.21 in 10.0 mi North 23.0 mph 32.2 mph N/A   Mostly Cloudy
11:35 AM 33.4 °F 20.8 °F 22.1 °F 63% 30.22 in 10.0 mi North 24.2 mph 34.5 mph N/A   Overcast
11:55 AM 34.0 °F 22.4 °F 21.9 °F 61% 30.23 in 10.0 mi North 20.7 mph 35.7 mph N/A   Mostly Cloudy
12:15 PM 33.3 °F 22.8 °F 20.7 °F 60% 30.24 in 10.0 mi North 16.1 mph 32.2 mph N/A   Mostly Cloudy
12:35 PM 32.2 °F 19.1 °F 19.0 °F 58% 30.25 in 10.0 mi North 24.2 mph 35.7 mph N/A   Mostly Cloudy
12:55 PM 32.0 °F 17.4 °F 18.1 °F 57% 30.24 in 10.0 mi North 31.1 mph 42.6 mph N/A   Scattered Clouds
1:15 PM 32.0 °F 19.2 °F 19.4 °F 60% 30.28 in 10.0 mi North 23.0 mph 38.0 mph N/A   Clear
1:35 PM 31.8 °F 19.3 °F 18.3 °F 57% 30.29 in 10.0 mi North 21.9 mph 33.4 mph N/A   Scattered Clouds
1:55 PM 32.0 °F 20.5 °F 16.7 °F 53% 30.31 in 10.0 mi North 18.4 mph 29.9 mph N/A   Scattered Clouds
2:15 PM 31.1 °F 19.3 °F 16.3 °F 54% 30.32 in 10.0 mi North 18.4 mph 31.1 mph N/A   Scattered Clouds
2:35 PM 31.5 °F 20.1 °F 14.0 °F 49% 30.33 in 10.0 mi North 17.3 mph 35.7 mph N/A   Scattered Clouds
2:55 PM 31.1 °F 17.7 °F 13.1 °F 47% 30.34 in 10.0 mi North 24.2 mph 38.0 mph N/A   Mostly Cloudy
3:15 PM 30.2 °F 18.1 °F 13.8 °F 51% 30.36 in 10.0 mi North 18.4 mph 29.9 mph N/A   Mostly Cloudy
3:35 PM 30.0 °F 17.9 °F 11.3 °F 46% 30.37 in 10.0 mi North 18.4 mph 28.8 mph N/A   Mostly Cloudy
3:55 PM 29.8 °F 17.3 °F 9.3 °F 42% 30.38 in 10.0 mi North 19.6 mph 28.8 mph N/A   Scattered Clouds
4:15 PM 30.0 °F 16.9 °F 8.8 °F 41% 30.39 in 10.0 mi North 21.9 mph 32.2 mph N/A   Scattered Clouds
4:35 PM 29.7 °F 17.4 °F 9.0 °F 42% 30.41 in 10.0 mi North 18.4 mph 25.3 mph N/A   Scattered Clouds
6:15 PM 28.4 °F 19.7 °F 8.6 °F 43% 30.46 in 10.0 mi NNW 9.2 mph 24.2 mph N/A   Scattered Clouds
6:35 PM 28.4 °F 18.5 °F 9.0 °F 44% 30.47 in 10.0 mi North 11.5 mph 19.6 mph N/A   Scattered Clouds
6:55 PM 28.4 °F 19.7 °F 9.9 °F 46% 30.47 in 10.0 mi NNW 9.2 mph 21.9 mph N/A   Scattered Clouds
7:15 PM 28.4 °F 19.1 °F 9.5 °F 45% 30.48 in 10.0 mi NNW 10.4 mph - N/A   Scattered Clouds
7:35 PM 28.8 °F 19.0 °F 9.5 °F 45% 30.48 in 10.0 mi NNW 11.5 mph 18.4 mph N/A   Mostly Cloudy
7:55 PM 28.8 °F 19.0 °F 9.5 °F 45% 30.48 in 10.0 mi NNW 11.5 mph 19.6 mph N/A   Mostly Cloudy
8:15 PM 28.9 °F 19.8 °F 9.5 °F 44% 30.49 in 10.0 mi NNW 10.4 mph 18.4 mph N/A   Overcast
8:35 PM 29.1 °F 21.3 °F 10.2 °F 45% 30.49 in 10.0 mi NNW 8.1 mph 18.4 mph N/A   Overcast
8:55 PM 29.3 °F 19.6 °F 10.4 °F 45% 30.50 in 10.0 mi NNW 11.5 mph 24.2 mph N/A   Overcast
9:15 PM 29.1 °F 18.9 °F 9.7 °F 44% 30.50 in 10.0 mi NNW 12.7 mph 20.7 mph N/A   Overcast
9:35 PM 29.1 °F 18.9 °F 9.5 °F 44% 30.51 in 10.0 mi NNW 12.7 mph 21.9 mph N/A   Overcast
9:55 PM 28.9 °F 19.2 °F 9.0 °F 43% 30.51 in 10.0 mi NNW 11.5 mph 18.4 mph N/A   Overcast
10:15 PM 28.8 °F 19.5 °F 8.8 °F 43% 30.51 in 10.0 mi NNW 10.4 mph 21.9 mph N/A   Overcast
10:35 PM 28.9 °F 19.2 °F 9.3 °F 44% 30.51 in 10.0 mi NNW 11.5 mph 16.1 mph N/A   Overcast
10:55 PM 28.8 °F 20.9 °F 9.3 °F 44% 30.51 in 10.0 mi NNW 8.1 mph 20.7 mph N/A   Overcast
11:15 PM 28.4 °F 18.5 °F 9.5 °F 45% 30.50 in 10.0 mi North 11.5 mph 20.7 mph N/A   Mostly Cloudy
11:35 PM 28.2 °F 18.3 °F 10.4 °F 47% 30.50 in 10.0 mi North 11.5 mph 18.4 mph N/A   Scattered Clouds
11:55 PM 28.0 °F 18.6 °F 10.8 °F 48% 30.50 in 10.0 mi North 10.4 mph 18.4 mph N/A   Scattered Clouds